Flag for U.S.A. Weather past 2 weeks in Mansfield, Texas, U.S.A.

Now
68 °F

Mostly cloudy.


Feels Like: 68 °F
Forecast: 58 / 69 °F
Wind: No wind

Location: Burleson-Rendon

Current Time: Apr 27, 2015 at 2:17:49 AM

Latest Report: Apr 27, 2015 at 1:35 AM


Visibility: 7 mi

Pressure: 29.68 "Hg

Humidity: 92%

Dew point: 65 °F

Location of MansfieldLocation

Historic Weather in Mansfield — Graph

°F

Mansfield temperature yesterday

Maximum temperature yesterday: 82 °F (at 11:46 AM)
Minimum temperature yesterday: 55 °F (at 2:55 AM)
Average temperature yesterday: 68 °F

Past Weeks' High & Low Weather Summary

 TemperatureHumidityPressure
High86 °F (Apr 25, 4:50 PM)100% (Apr 13, 7:52 AM)30.13 "Hg (Apr 13, 7:52 AM)
Low45 °F (Apr 20, 6:47 AM)27% (Apr 25, 4:50 PM)29.56 "Hg (Apr 26, 6:55 PM)
Average65 °F81%29.90 "Hg
* Reported Apr 12 1:15 AM — Apr 27 1:15 AM, Mansfield, Weather by CustomWeather, © 2015

Note: Actual official high and low records may vary slightly from our data, if they occured in-between our weather recording intervals... More about our weather records

Advertising

Mansfield weather history for previous 24 hours

 ConditionsComfort  
Time TempWeatherWind HumidityBarometerVisibility
1:15 AM
Mon, Apr 27
68 °FMostly cloudy.12 mph92%29.67 "Hg7 mi
12:55 AM68 °FLight rain. Overcast.6 mph93%29.65 "Hg5 mi
12:35 AM70 °FThunderstorms. Overcast.14 mph91%29.66 "Hg5 mi
12:15 AM71 °FStrong thunderstorms. Overcast.9 mph85%29.73 "Hg4 mi
11:55 PM
Sun, Apr 26
71 °FStrong thunderstorms. Overcast.6 mph89%29.72 "Hg4 mi
11:35 PM71 °FThunderstorms. Overcast.3 mph91%29.67 "Hg5 mi
11:15 PM71 °FThunderstorms. Mostly cloudy.13 mph90%29.62 "Hg4 mi
10:15 PM73 °FStrong thunderstorms. Mostly cloudy.6 mph82%29.64 "Hg4 mi
9:55 PM74 °FThundershowers. Overcast.6 mph77%29.61 "Hg7 mi
9:15 PM76 °FLight rain. Partly cloudy.18 mph66%29.58 "Hg10 mi
8:55 PM75 °FScattered clouds.15 mph67%29.56 "Hg10 mi
8:35 PM77 °FThundershowers. Partly sunny.16 mph60%29.56 "Hg10 mi
8:15 PM77 °FScattered clouds.18 mph57%29.56 "Hg10 mi
6:55 PM77 °FSunny.18 mph61%29.56 "Hg10 mi
5:48 PM77 °FScattered clouds.12 mph61%29.60 "Hg10 mi
4:49 PM77 °FScattered clouds.8 mph65%29.65 "Hg10 mi
3:50 PM81 °FScattered clouds.9 mph42%29.64 "Hg10 mi
2:51 PM82 °FSunny.9 mph70%29.67 "Hg10 mi
1:50 PM79 °FBroken clouds.No wind74%29.73 "Hg10 mi
12:53 PM81 °FScattered clouds.17 mph70%29.74 "Hg7 mi
11:46 AM82 °FSunny.No wind55%29.70 "Hg10 mi
10:49 AM79 °FSunny.No wind61%29.71 "Hg10 mi
9:46 AM73 °FSunny.No wind69%29.73 "Hg10 mi
8:48 AM68 °FSunny.7 mph78%29.72 "Hg10 mi
7:58 AM64 °FSunny.7 mph83%29.72 "Hg10 mi
6:51 AM63 °FClear.6 mph83%29.69 "Hg10 mi
6:35 AM63 °FClear.8 mph84%29.69 "Hg10 mi
6:15 AM62 °FClear.8 mph84%29.68 "Hg10 mi
5:55 AM63 °FClear.7 mph84%29.67 "Hg10 mi
5:35 AM63 °FClear.7 mph81%29.67 "Hg10 mi
5:15 AM63 °FClear.7 mph77%29.67 "Hg10 mi
4:55 AM65 °FClear.No wind75%29.67 "Hg10 mi
4:35 AM64 °FClear.No wind73%29.67 "Hg10 mi
4:15 AM64 °FClear.6 mph69%29.67 "Hg10 mi
3:55 AM64 °FClear.No wind64%29.67 "Hg10 mi
3:35 AM61 °FClear.No wind68%29.67 "Hg10 mi
3:15 AM57 °FClear.No wind81%29.67 "Hg10 mi
2:55 AM55 °FClear.No wind90%29.67 "Hg10 mi
2:35 AM56 °FClear.No wind84%29.68 "Hg10 mi
2:15 AM57 °FClear.No wind83%29.68 "Hg10 mi
Weather by CustomWeather, © 2015

See weather overviewHow to use our weather pages